{"data":{"norad_id":55431,"epoch":"2026-09-20T22:00:03.000096Z","epoch_age_seconds":60574,"freshness":"FRESH","line1":"1 55431U 23014AS  26263.91670139  .00081463  00000+0  53016-2 0  9991","line2":"2 55431  70.0015 312.2728 0003275 323.1640  55.3281 15.07499150  5767","mean_motion":15.0749915,"eccentricity":0.0003275,"inclination_deg":70.0015,"raan_deg":312.2728,"arg_perigee_deg":323.164,"mean_anomaly_deg":55.3281,"bstar":0.0053016,"rev_number":576,"period_min":95.522441919785,"perigee_km":541.57791944722,"apogee_km":546.1118175711,"semimajor_km":6921.9818685092,"source":"CELESTRAK","updated_at":"2026-09-21T09:00:33.222214Z"}}